EW8803 Weather Reports


time (UTC)temp
F
wind
direction
speed
knots
gust
knots
rain 1hr
in
rain 24hr
in
rain mn
in
humidity
%
barometer
mb
20260510211104 53 244 0.0 1.7 0.00 0.57 0.57 90 1014.2
20260510210533 53 219 0.9 1.7 0.00 0.57 0.57 90 1014.8
20260510210122 53 264 0.0 1.7 0.00 0.57 0.57 90 1014.8
20260510205517 53 260 0.0 2.6 0.00 0.57 0.57 90 1014.8
20260510205034 53 257 0.9 2.6 0.00 0.57 0.57 90 1014.7
20260510204553 53 217 0.9 2.6 0.00 0.57 0.57 90 1014.6
20260510204032 54 252 0.0 2.6 0.00 0.57 0.57 89 1014.6
20260510203544 54 281 0.0 2.6 0.00 0.57 0.57 90 1014.5
20260510203037 53 240 0.9 3.5 0.00 0.57 0.57 90 1014.4
20260510202528 53 237 1.7 3.5 0.00 0.57 0.57 90 1014.4
20260510202057 54 242 1.7 3.5 0.00 0.57 0.57 91 1014.3
20260510201541 54 213 2.6 3.5 0.00 0.57 0.57 91 1014.3
20260510201036 54 211 1.7 2.6 0.00 0.57 0.57 91 1014.2
20260510200531 54 267 0.0 1.7 0.00 0.57 0.57 91 1014.1
20260510200044 54 284 0.9 3.5 0.00 0.57 0.57 91 1014.2
20260510195552 54 297 1.7 4.3 0.00 0.57 0.57 91 1014.1
20260510195041 54 270 2.6 4.3 0.00 0.57 0.57 92 1014.2
20260510194608 54 208 3.5 5.2 0.00 0.57 0.57 92 1013.4
20260510194043 54 219 2.6 5.2 0.00 0.57 0.57 93 1014.0
20260510193517 54 185 0.9 2.6 0.00 0.57 0.57 93 1013.9
20260510193022 53 125 0.9 2.6 0.00 0.57 0.57 93 1013.8
20260510192558 53 167 1.7 1.7 0.00 0.57 0.57 93 1013.7
20260510192034 53 186 0.9 0.9 0.00 0.57 0.57 93 1013.7
20260510191545 53 146 0.0 0.9 0.00 0.57 0.57 93 1013.5
20260510191024 53 166 0.9 0.9 0.00 0.57 0.57 93 1013.6
20260510190549 53 177 0.0 1.7 0.00 0.57 0.57 93 1013.6
20260510190052 53 169 0.9 3.5 0.00 0.57 0.57 93 1013.5
20260510185540 53 226 0.0 4.3 0.00 0.57 0.57 93 1013.5
20260510185018 53 208 1.7 4.3 0.00 0.57 0.57 92 1013.4
20260510184519 53 221 1.7 3.5 0.00 0.57 0.57 93 1013.3
20260510184119 53 210 1.7 4.3 0.00 0.57 0.57 92 1012.7
20260510183540 53 193 2.6 5.2 0.00 0.57 0.57 92 1013.3
20260510183033 54 195 4.3 5.2 0.00 0.57 0.57 92 1013.4
20260510182540 54 264 2.6 6.1 0.00 0.57 0.57 92 1013.4
20260510182041 54 257 4.3 7.8 0.00 0.57 0.57 92 1013.4
20260510181533 54 230 1.7 7.8 0.00 0.57 0.57 91 1013.3
20260510181017 54 302 3.5 7.8 0.01 0.57 0.57 91 1013.3
20260510180524 54 239 7.0 7.8 0.02 0.57 0.57 91 1013.4
20260510180042 54 251 4.3 7.0 0.02 0.57 0.57 91 1013.3
20260510175542 54 219 5.2 7.0 0.03 0.57 0.57 90 1013.3
20260510175035 54 283 3.5 6.1 0.03 0.57 0.57 90 1013.2
20260510174536 54 198 2.6 5.2 0.03 0.57 0.57 92 1013.1
20260510174027 54 228 3.5 4.3 0.03 0.57 0.57 92 1013.1
20260510173531 54 240 1.7 3.5 0.03 0.57 0.57 92 1013.0
20260510173040 53 276 0.9 6.1 0.04 0.57 0.57 91 1013.1
20260510172532 53 230 0.9 6.1 0.05 0.57 0.57 93 1013.2
20260510172051 53 239 3.5 6.1 0.05 0.57 0.57 93 1013.5
20260510171534 53 237 2.6 7.0 0.05 0.57 0.57 92 1013.2
20260510171046 53 302 1.7 7.8 0.04 0.56 0.56 91 1013.5
20260510170528 53 246 6.1 9.6 0.03 0.55 0.55 89 1013.5
20260510170044 54 296 7.0 9.6 0.02 0.54 0.54 88 1013.5
20260510165541 54 267 4.3 8.7 0.04 0.54 0.54 90 1013.4
20260510165040 54 257 3.5 7.0 0.06 0.54 0.54 91 1013.3
20260510164519 54 248 4.3 8.7 0.07 0.54 0.54 91 1013.3
20260510164040 54 266 4.3 8.7 0.12 0.54 0.54 91 1013.3
20260510163540 54 254 6.1 9.6 0.15 0.54 0.54 91 1013.4
20260510163047 54 288 7.0 9.6 0.17 0.53 0.53 91 1013.3
20260510162636 54 270 3.5 9.6 0.17 0.52 0.52 92 1012.6
20260510162127 53 245 5.2 8.7 0.17 0.52 0.52 92 1012.6
20260510161537 53 210 5.2 8.7 0.20 0.52 0.52 93 1013.2
20260510161042 53 228 3.5 7.0 0.24 0.57 0.52 93 1013.1
20260510160525 53 222 1.7 7.0 0.26 0.57 0.52 93 1013.0
20260510155019 53 291 5.2 12.2 0.23 0.53 0.47 88 1013.2
20260510154547 54 348 6.1 11.3 0.22 0.52 0.46 91 1013.0
20260510154058 55 305 3.5 9.6 0.19 0.49 0.43 92 1013.0
20260510153023 55 286 6.1 7.8 0.12 0.42 0.36 91 1012.9
20260510152549 55 318 4.3 7.0 0.10 0.40 0.35 91 1012.7
20260510152030 55 336 2.6 7.0 0.10 0.40 0.35 91 1012.7
20260510151546 56 322 4.3 7.0 0.07 0.37 0.31 90 1012.7
20260510151022 56 321 0.9 7.0 0.05 0.35 0.29 88 1012.5
20260510150524 57 329 4.3 7.0 0.02 0.32 0.26 87 1012.4
20260510150134 57 327 3.5 6.1 0.00 0.31 0.24 85 1011.8
20260510145524 57 291 0.0 6.1 0.00 0.31 0.24 85 1012.4
20260510145017 57 277 3.5 7.0 0.00 0.31 0.24 83 1012.4
20260510144602 57 281 2.6 8.7 0.01 0.31 0.24 84 1012.5
20260510144043 57 276 4.3 8.7 0.01 0.31 0.24 84 1012.6
20260510143526 57 312 4.3 7.0 0.01 0.31 0.24 84 1012.7
20260510143023 57 271 3.5 7.8 0.02 0.31 0.24 85 1012.7
20260510142546 56 11 4.3 7.8 0.02 0.31 0.24 84 1012.6
20260510142039 57 279 5.2 8.7 0.02 0.31 0.24 85 1012.7
20260510141536 56 295 4.3 12.2 0.02 0.31 0.24 86 1012.8
20260510141057 56 273 6.1 12.2 0.02 0.31 0.24 86 1012.9
20260510140535 55 266 3.5 13.9 0.04 0.31 0.24 90 1013.1
20260510140046 55 274 11.3 13.9 0.07 0.31 0.24 88 1013.2
20260510135038 55 330 8.7 13.0 0.09 0.31 0.24 92 1013.3
20260510134534 55 292 4.3 12.2 0.08 0.30 0.24 94 1013.3
20260510134032 54 262 7.0 12.2 0.08 0.30 0.24 93 1013.3
20260510133526 54 293 5.2 11.3 0.09 0.30 0.24 94 1013.2
20260510133030 54 288 6.1 14.8 0.09 0.30 0.24 93 1013.3
20260510132036 54 248 7.0 13.0 0.10 0.29 0.23 93 1013.3
20260510131534 54 241 7.0 15.6 0.10 0.28 0.22 94 1013.3
20260510131049 53 257 10.4 15.6 0.10 0.28 0.22 93 1013.2
20260510130622 53 315 7.0 18.2 0.09 0.28 0.21 93 1012.6
20260510130101 54 244 11.3 18.2 0.06 0.24 0.17 91 1013.3
20260510125617 54 269 6.1 13.9 0.04 0.22 0.16 92 1012.5
20260510125030 54 283 7.0 12.2 0.04 0.22 0.16 92 1012.9
20260510124544 53 269 9.6 12.2 0.04 0.22 0.16 93 1012.9
20260510124045 53 285 6.1 10.4 0.04 0.22 0.16 93 1012.9
20260510123046 53 293 5.2 11.3 0.02 0.20 0.14 92 1012.9
20260510122542 54 290 7.0 16.5 0.02 0.20 0.13 89 1013.9
20260510122100 56 308 7.0 16.5 0.02 0.19 0.13 85 1013.8
20260510121127 57 228 5.2 11.3 0.03 0.18 0.12 89 1011.8
20260510120546 56 200 5.2 11.3 0.04 0.18 0.12 89 1013.3
20260510120124 56 241 7.8 11.3 0.04 0.18 0.12 90 1013.5
20260510115019 55 228 8.7 13.0 0.06 0.18 0.12 91 1013.9
20260510114525 55 234 7.0 12.2 0.06 0.18 0.12 92 1013.9
20260510114034 55 217 5.2 13.0 0.06 0.18 0.12 92 1013.8
20260510113029 55 244 7.8 12.2 0.06 0.18 0.12 92 1014.1
20260510112525 55 221 8.7 11.3 0.06 0.17 0.11 93 1014.1
20260510112041 55 188 7.0 11.3 0.06 0.17 0.11 93 1014.1
20260510111534 54 243 5.2 11.3 0.06 0.17 0.11 92 1014.0
20260510111027 54 205 5.2 11.3 0.04 0.17 0.09 92 1014.1
20260510110618 54 318 6.1 14.8 0.02 0.15 0.08 91 1012.6
20260510110048 55 237 8.7 14.8 0.02 0.15 0.08 90 1014.2
20260510105517 55 217 7.8 13.0 0.02 0.14 0.07 90 1014.1
20260510105040 55 248 6.1 7.0 0.02 0.13 0.06 90 1014.1
20260510104543 55 231 2.6 10.4 0.02 0.13 0.06 91 1014.1
20260510104127 55 211 5.2 11.3 0.02 0.13 0.06 90 1012.6
20260510103520 55 201 6.1 13.0 0.02 0.13 0.06 89 1014.1
20260510103040 55 201 7.8 13.0 0.02 0.13 0.06 87 1014.1
20260510102526 56 264 5.2 13.0 0.01 0.13 0.06 86 1014.1
20260510102114 56 240 7.0 13.0 0.01 0.13 0.06 85 1012.6
20260510101537 56 220 7.0 13.0 0.01 0.13 0.06 86 1014.2
20260510101044 56 223 6.1 13.0 0.01 0.22 0.06 86 1014.1
20260510100541 56 248 8.7 13.0 0.01 0.22 0.06 85 1014.1
20260510100044 56 224 7.8 11.3 0.01 0.22 0.06 83 1014.1
20260510095613 57 215 7.8 17.4 0.00 0.21 0.05 81 1012.6
20260510095043 57 250 8.7 19.1 0.00 0.21 0.05 78 1014.0
20260510094524 57 269 11.3 17.4 0.00 0.21 0.05 77 1014.0
20260510094030 57 221 8.7 15.6 0.00 0.21 0.05 77 1014.0
20260510093529 57 252 9.6 15.6 0.00 0.21 0.05 77 1013.9
20260510093021 57 216 9.6 15.6 0.00 0.21 0.05 77 1013.9
20260510092516 57 204 11.3 13.0 0.00 0.21 0.05 77 1013.9
20260510092028 57 182 6.1 14.8 0.00 0.21 0.05 78 1013.9
20260510091524 57 217 7.8 14.8 0.00 0.21 0.05 77 1013.8
20260510091044 57 245 7.0 20.0 0.00 0.21 0.05 77 1013.9
20260510090543 57 222 9.6 20.0 0.00 0.21 0.05 77 1013.8
20260510085542 57 210 7.8 14.8 0.00 0.21 0.05 77 1013.7
20260510085039 57 232 5.2 14.8 0.00 0.21 0.05 78 1013.7
20260510084608 57 234 12.2 14.8 0.00 0.21 0.05 78 1012.1
20260510084019 56 224 7.0 13.9 0.00 0.21 0.05 80 1013.7
20260510083546 56 257 7.8 12.2 0.00 0.21 0.05 80 1013.7
20260510083037 56 176 3.5 12.2 0.00 0.21 0.05 83 1012.8
20260510082620 56 115 4.3 11.3 0.00 0.21 0.05 83 1012.3
20260510082058 56 216 4.3 13.0 0.00 0.21 0.05 83 1013.0
20260510081518 56 200 9.6 13.0 0.00 0.21 0.05 82 1013.0
20260510081040 56 231 7.0 13.0 0.00 0.22 0.05 83 1013.0
20260510080605 56 221 7.0 13.0 0.00 0.22 0.05 85 1012.3
20260510080120 56 217 10.4 13.0 0.00 0.22 0.05 85 1012.8
20260510075530 56 191 4.3 13.0 0.00 0.22 0.05 87 1012.9
20260510075018 56 177 7.8 13.0 0.00 0.22 0.05 86 1012.9
20260510074524 56 188 7.8 12.2 0.00 0.22 0.05 87 1012.9
20260510074039 55 165 5.2 11.3 0.00 0.22 0.05 90 1012.8
20260510073538 55 136 3.5 11.3 0.00 0.22 0.05 91 1013.0
20260510073025 54 210 5.2 8.7 0.00 0.22 0.05 93 1012.9
20260510072519 53 212 5.2 9.6 0.00 0.22 0.05 93 1012.9
20260510072036 53 174 7.0 11.3 0.00 0.22 0.05 94 1013.0
20260510071520 53 201 2.6 11.3 0.00 0.22 0.05 94 1013.0
20260510071025 53 229 4.3 9.6 0.00 0.22 0.05 94 1013.1
20260510070103 53 218 5.2 7.0 0.00 0.22 0.05 94 1013.0
20260510065517 53 222 3.5 6.1 0.00 0.22 0.05 94 1012.9
20260510065030 53 215 2.6 7.0 0.00 0.22 0.05 94 1012.8
20260510064532 53 181 4.3 7.0 0.00 0.22 0.05 95 1012.7
20260510064101 53 228 2.6 4.3 0.00 0.22 0.05 95 1012.8
20260510063532 53 163 2.6 5.2 0.00 0.22 0.05 95 1012.7
20260510063101 52 152 3.5 5.2 0.00 0.22 0.05 95 1012.7
20260510062530 52 201 2.6 5.2 0.00 0.22 0.05 95 1012.7
20260510062031 52 200 2.6 5.2 0.00 0.22 0.05 95 1012.7
20260510061516 52 211 2.6 5.2 0.00 0.22 0.05 95 1012.6
20260510061109 52 210 2.6 4.3 0.00 0.22 0.05 95 1011.9
20260510060044 52 134 1.7 5.2 0.01 0.22 0.05 95 1012.5
20260510055520 52 207 2.6 5.2 0.02 0.22 0.05 95 1012.5
20260510055033 52 214 3.5 4.3 0.03 0.22 0.05 95 1012.4
20260510054537 52 205 0.9 4.3 0.03 0.22 0.05 95 1013.4
20260510054025 52 190 1.7 4.3 0.03 0.22 0.05 95 1013.4
20260510053616 52 229 0.9 4.3 0.03 0.22 0.05 95 1011.8
20260510052530 52 141 0.9 6.1 0.04 0.22 0.05 95 1013.4
20260510052035 52 211 2.6 5.2 0.05 0.22 0.05 95 1013.4
20260510051532 52 226 2.6 5.2 0.05 0.22 0.05 95 1013.4
20260510051040 52 252 2.6 4.3 0.05 0.22 0.05 95 1013.5
20260510050620 52 212 2.6 5.2 0.05 0.22 0.05 94 1011.8
20260510050058 52 216 4.3 5.2 0.04 0.21 0.04 94 1013.3
20260510045601 52 198 2.6 7.0 0.03 0.20 0.03 94 1013.3
20260510045017 52 222 2.6 7.0 0.02 0.19 0.02 94 1013.3
20260510044517 52 201 3.5 5.2 0.02 0.19 0.02 94 1013.3
20260510044100 52 231 1.7 3.5 0.02 0.19 0.02 93 1013.2
20260510043542 52 184 1.7 6.1 0.02 0.19 0.02 93 1013.3
20260510043026 52 150 3.5 8.7 0.01 0.18 0.01 93 1013.3
20260510042538 52 214 5.2 8.7 0.01 0.18 0.01 93 1013.3
20260510042016 52 208 5.2 9.6 0.01 0.18 0.01 92 1013.3
20260510041520 52 212 4.3 9.6 0.00 0.17 0.00 92 1013.3
20260510041129 52 231 2.6 7.0 0.00 0.17 0.00 91 1011.7
20260510040528 52 207 2.6 7.8 0.00 0.17 0.00 91 1013.3
20260510035535 52 126 1.7 6.1 0.00 0.17 0.00 90 1013.3
20260510035032 52 188 0.9 5.2 0.00 0.17 0.00 90 1013.4
20260510034522 52 200 0.9 5.2 0.00 0.17 0.00 89 1013.4
20260510034142 52 211 2.6 4.3 0.00 0.17 0.00 89 1011.9
20260510033523 52 148 0.9 4.3 0.00 0.17 0.00 89 1013.6
20260510033043 52 194 0.0 3.5 0.00 0.17 0.00 89 1013.6
20260510032546 53 191 0.0 3.5 0.00 0.17 0.00 88 1013.5
20260510032025 53 166 1.7 3.5 0.00 0.17 0.00 87 1013.5
20260510031551 52 180 0.0 2.6 0.00 0.17 0.00 87 1013.4
20260510031058 52 209 0.0 1.7 0.00 0.17 0.00 87 1013.5
20260510030522 52 201 0.0 2.6 0.00 0.17 0.00 86 1013.5
20260510030043 52 203 1.7 3.5 0.00 0.17 0.00 86 1013.5
20260510025527 52 226 2.6 3.5 0.00 0.17 0.00 86 1013.5
20260510025024 52 167 0.0 0.0 0.00 0.17 0.00 86 1013.5
20260510024520 52 217 0.0 0.0 0.00 0.17 0.00 86 1013.5
20260510023602 52 182 0.0 0.0 0.00 0.17 0.00 86 1013.6
20260510023056 52 184 0.0 0.0 0.00 0.17 0.00 86 1013.6
20260510022517 52 217 0.0 0.0 0.00 0.17 0.00 86 1013.6
20260510022016 52 226 0.0 0.0 0.00 0.17 0.00 86 1013.7
20260510021538 52 236 0.0 0.0 0.00 0.17 0.00 85 1013.7
20260510021041 52 266 0.0 0.0 0.00 0.17 0.00 85 1013.8
20260510020537 52 226 0.0 0.0 0.00 0.17 0.00 85 1013.7
20260510020100 52 230 0.0 0.0 0.00 0.17 0.00 85 1013.8
20260510015015 53 240 0.0 1.7 0.00 0.17 0.00 85 1013.8
20260510014602 53 278 0.0 0.9 0.00 0.17 0.00 85 1013.7
20260510014039 52 285 0.0 0.9 0.00 0.17 0.00 85 1013.7
20260510013516 52 277 0.0 0.9 0.00 0.17 0.00 85 1013.7
20260510013034 52 132 0.0 2.6 0.00 0.17 0.00 85 1013.8
20260510012517 52 290 0.0 4.3 0.00 0.17 0.00 85 1013.8
20260510012037 53 264 1.7 5.2 0.00 0.17 0.00 85 1013.8
20260510011525 53 244 2.6 5.2 0.00 0.17 0.00 84 1013.9
20260510011028 53 239 2.6 4.3 0.00 0.17 0.00 84 1014.0
20260510010526 53 226 0.9 4.3 0.00 0.17 0.00 84 1014.0
20260510010059 53 259 1.7 4.3 0.00 0.17 0.00 84 1014.2
20260510005536 53 263 3.5 5.2 0.00 0.17 0.00 84 1014.1
20260510005022 53 264 1.7 7.0 0.00 0.17 0.00 83 1014.1
20260510004041 53 228 2.6 7.0 0.00 0.17 0.00 83 1014.1
20260510003541 53 255 1.7 7.8 0.00 0.17 0.00 82 1014.1
20260510003032 53 214 4.3 7.8 0.00 0.17 0.00 82 1014.1
20260510002516 53 222 3.5 6.1 0.00 0.17 0.00 82 1014.1
20260510002019 53 213 3.5 8.7 0.00 0.17 0.00 82 1014.1
20260510001534 53 245 6.1 8.7 0.00 0.17 0.00 82 1014.1
20260510001023 53 231 3.5 9.6 0.00 0.17 0.00 82 1014.1
20260510000523 53 231 6.1 9.6 0.00 0.17 0.00 82 1014.1
20260510000105 53 240 7.0 9.6 0.00 0.17 0.00 82 1014.1
20260509235533 53 233 6.1 10.4 0.00 0.17 0.00 81 1014.0
20260509235031 54 212 4.3 12.2 0.00 0.17 0.00 81 1014.0
20260509234550 54 237 7.0 13.9 0.00 0.17 0.00 81 1014.1
20260509234028 54 232 7.0 13.9 0.00 0.17 0.00 81 1014.1
20260509233618 54 227 7.8 12.2 0.00 0.17 0.00 80 1012.5
20260509233046 54 219 7.8 12.2 0.00 0.17 0.00 80 1014.2
20260509232525 54 238 7.0 11.3 0.00 0.17 0.00 80 1014.1
20260509232030 54 221 5.2 9.6 0.00 0.17 0.00 80 1014.2
20260509231531 54 236 5.2 11.3 0.00 0.17 0.00 80 1014.2
20260509231032 54 241 5.2 11.3 0.00 0.17 0.00 79 1014.3
20260509230536 54 263 6.1 13.0 0.00 0.17 0.00 80 1014.3
20260509230050 54 243 6.1 13.0 0.00 0.17 0.00 79 1014.3
20260509225642 54 258 7.8 12.2 0.00 0.17 0.00 80 1012.7
20260509225032 54 221 5.2 13.0 0.00 0.17 0.00 80 1014.1
20260509224535 54 241 6.1 13.0 0.00 0.17 0.00 79 1014.1
20260509224035 54 212 8.7 15.6 0.00 0.17 0.00 79 1014.0
20260509223540 55 232 7.0 15.6 0.00 0.17 0.00 80 1014.0
20260509223016 55 222 7.8 10.4 0.00 0.17 0.00 80 1014.0
20260509222539 55 230 7.0 12.2 0.00 0.17 0.00 79 1014.1
20260509222036 55 245 8.7 12.2 0.00 0.17 0.00 79 1014.0
20260509221525 55 228 7.8 12.2 0.00 0.17 0.00 79 1014.1
20260509221018 55 252 7.8 11.3 0.00 0.17 0.00 79 1014.0
20260509220529 55 243 6.1 9.6 0.00 0.17 0.00 79 1014.1
20260509220116 55 238 6.1 8.7 0.00 0.17 0.17 79 1014.0
20260509215617 55 204 6.1 10.4 0.00 0.17 0.17 79 1012.3
20260509215136 55 244 6.1 9.6 0.00 0.17 0.17 80 1012.3
20260509214523 56 243 7.8 10.4 0.00 0.17 0.17 80 1013.8
20260509213525 56 217 5.2 10.4 0.00 0.17 0.17 80 1013.7
20260509213027 56 243 5.2 9.6 0.00 0.17 0.17 79 1013.6
20260509212524 56 220 5.2 7.8 0.00 0.17 0.17 79 1013.7
20260509212057 56 208 3.5 7.0 0.00 0.17 0.17 79 1013.7
20260509211535 56 218 4.3 7.0 0.00 0.17 0.17 78 1013.6